Albany, NY

10:22 AM EST on November 15, 2019 (GMT -0500)
Albany International

Weather History for KALB - September, 2019

Change the Weather History Date:

Tuesday, September 24, 2019

  Actual Average Record
Temperature  
Mean Temperature 65 °F 58 °F  
Max Temperature 73 °F 69 °F 90 °F (2017)
Min Temperature 56 °F 48 °F 27 °F (1963)
Degree Days  
Heating Degree Days 0 7  
Month to date heating degree days 52 91  
Since 1 July heating degree days 54 114  
Cooling Degree Days 0 1  
Month to date cooling degree days 41 48  
Year to date cooling degree days 764 591  
Growing Degree Days 16 (Base 50)    
Moisture  
Dew Point 54 °F    
Average Humidity 69    
Maximum Humidity 84    
Minimum Humidity 53    
Precipitation  
Precipitation T in 0.12 in 1.88 in (1946)
Month to date precipitation 1.95 2.59  
Year to date precipitation 30.93 28.74  
Sea Level Pressure  
Sea Level Pressure 29.78 in    
Wind  
Wind Speed 10 mph (West)    
Max Wind Speed 24 mph    
Max Gust Speed 30 mph    
Visibility 10 miles    
Events Rain    
T = Trace of Precipitation, MM = Missing Value Source: NWS Daily Summary

Daily Weather History Graph

Daily Weather History Graph

Search for Another Location

Airport or City:

Astronomy

Sep. 24, 2019 Rise Set
Actual Time 6:44 AM EDT 6:49 PM EDT
Civil Twilight 6:16 AM EDT 7:17 PM EDT
Nautical Twilight 5:43 AM EDT 7:50 PM EDT
Astronomical Twilight 5:09 AM EDT 8:24 PM EDT
Moon 1:18 AM EDT (9/24) 4:40 PM EDT (9/24)
Length of Visible Light 13h 01m
Length of Day
12h 04m
Waning Crescent, 23% of the Moon is Illuminated
Sep 24
Waning Crescent
Sep 28
New
Oct 5
First Quarter
Oct 13
Full
Oct 21
Last Quarter

Hourly Weather History & Observations

Time (EDT) Temp. Dew Point Humidity Pressure Visibility Wind Dir Wind Speed Gust Speed Precip Events Conditions
12:51 AM 66.0 °F 62.1 °F 87% 29.73 in 10.0 mi Calm Calm - 0.00 in Rain Light Rain
1:51 AM 64.9 °F 59.0 °F 81% 29.73 in 10.0 mi NW 4.6 mph - 0.00 in   Mostly Cloudy
2:51 AM 64.0 °F 57.9 °F 80% 29.73 in 10.0 mi West 11.5 mph - N/A   Scattered Clouds
3:51 AM 62.1 °F 55.9 °F 80% 29.73 in 10.0 mi WNW 5.8 mph - N/A   Partly Cloudy
4:51 AM 62.1 °F 55.9 °F 80% 29.72 in 10.0 mi West 9.2 mph - N/A   Partly Cloudy
5:51 AM 61.0 °F 55.0 °F 81% 29.74 in 10.0 mi West 8.1 mph - N/A   Partly Cloudy
6:51 AM 60.1 °F 55.0 °F 83% 29.75 in 10.0 mi SW 5.8 mph - N/A   Mostly Cloudy
7:51 AM 63.0 °F 54.0 °F 72% 29.76 in 10.0 mi Variable 4.6 mph - N/A   Scattered Clouds
8:51 AM 64.9 °F 55.0 °F 70% 29.78 in 10.0 mi West 6.9 mph - N/A   Mostly Cloudy
9:01 AM 64.9 °F 55.9 °F 73% 29.78 in 10.0 mi WNW 5.8 mph - N/A   Mostly Cloudy
9:51 AM 66.0 °F 55.0 °F 68% 29.78 in 10.0 mi West 6.9 mph - N/A   Mostly Cloudy
10:51 AM 66.9 °F 55.0 °F 66% 29.78 in 10.0 mi West 16.1 mph - N/A   Mostly Cloudy
11:27 AM 68.0 °F 55.9 °F 65% 29.77 in 10.0 mi WNW 11.5 mph - N/A   Mostly Cloudy
11:51 AM 66.9 °F 55.9 °F 68% 29.77 in 10.0 mi West 16.1 mph - N/A   Mostly Cloudy
12:51 PM 69.1 °F 55.9 °F 63% 29.76 in 10.0 mi WNW 11.5 mph 20.7 mph N/A   Mostly Cloudy
1:51 PM 69.1 °F 55.9 °F 63% 29.76 in 10.0 mi West 12.7 mph - N/A   Overcast
2:51 PM 72.0 °F 54.0 °F 53% 29.76 in 10.0 mi WNW 13.8 mph - N/A   Mostly Cloudy
3:51 PM 64.9 °F 54.0 °F 68% 29.78 in 10.0 mi WNW 16.1 mph - 0.00 in   Mostly Cloudy
4:51 PM 66.0 °F 52.0 °F 60% 29.80 in 10.0 mi West 15.0 mph - N/A   Mostly Cloudy
5:51 PM 66.0 °F 51.1 °F 59% 29.82 in 10.0 mi WNW 10.4 mph - N/A   Mostly Cloudy
6:51 PM 64.0 °F 48.9 °F 58% 29.83 in 10.0 mi WNW 12.7 mph - N/A   Mostly Cloudy
7:51 PM 63.0 °F 48.9 °F 60% 29.86 in 10.0 mi West 10.4 mph - N/A   Mostly Cloudy
8:51 PM 62.1 °F 48.9 °F 62% 29.87 in 10.0 mi West 8.1 mph - N/A   Mostly Cloudy
9:51 PM 61.0 °F 50.0 °F 67% 29.88 in 10.0 mi West 6.9 mph - N/A   Mostly Cloudy
10:51 PM 60.1 °F 51.1 °F 72% 29.87 in 10.0 mi West 5.8 mph - N/A   Mostly Cloudy
11:51 PM 57.9 °F 50.0 °F 75% 29.86 in 10.0 mi WNW 4.6 mph - N/A   Mostly Cloudy